Location: Dackenheim
(49.5215°N, 8.1854°E)
Time: 02:59:17
(UTC+00:00)

UWE-3 - Pass Details

Date: 21 March 2026
Orbit: 543 x 612 km, 97.9° (Epoch: 12 April)

Event Time Altitude Azimuth Distance (km) Brightness Sun altitude
Rises 02:51:05 0° 9° (N) 2,879 ? -25.0°
Reaches altitude 10° 02:53:20 10° 5° (N) 1,963 ? -24.7°
Enters shadow 02:56:30 41° 332° (NNW) 871 ? -24.2°
